Regional Weather Roundup
Issued by NWS

Home | Current Version | Previous Version | Graphics & Text | Print | Product List | Glossary On
Versions: 1 2 3 4 5 6 7 8 9 10 11 12 13 14 15 16 17 18 19 20 21 22 23 24 25 26 27 28 29 30 31 32 33 34 35 36 37 38 39 40 41 42 43 44 45 46 47 48 49 50
000
ASUS43 KLOT 032200
RWRIL

ILLINOIS REGIONAL WEATHER ROUNDUP
NATIONAL WEATHER SERVICE CHICAGO/ROMEOVILLE IL
500 PM CDT FRI JUL 03 2015

NOTE: "FAIR" INDICATES FEW OR NO CLOUDS BELOW 12,000 FEET WITH NO
SIGNIFICANT WEATHER AND/OR OBSTRUCTIONS TO VISIBILITY.

* THESE STATIONS ARE NOT UNDER NWS QUALITY CONTROL. THEY ALSO MAY NOT
  REPORT WEATHER SUCH AS PRECIPITATION OR FOG.

ILZ001-002-007-009-015-016-024-032300-
NORTHWEST ILLINOIS

CITY           SKY/WX    TMP DP  RH WIND       PRES   REMARKS
MOLINE         SUNNY     77  57  50 CALM      29.92F
STERLING*      SUNNY     77  59  53 N3        29.93F
$$

ILZ003-004-008-010-011-017-018-032300-
NORTH CENTRAL ILLINOIS

CITY           SKY/WX    TMP DP  RH WIND       PRES   REMARKS
ROCKFORD       MOSUNNY   78  56  46 NW6       29.94F
$$

ILZ005-006-012>014-019>023-032300-
NORTHEAST ILLINOIS

CITY           SKY/WX    TMP DP  RH WIND       PRES   REMARKS
CHICAGO-OHARE  PTSUNNY   75  53  46 E8        29.92F
CHICAGO-MIDWAY MOSUNNY   76  53  44 E8        29.92F
AURORA         MOSUNNY   77  56  48 W5        29.93F
WAUKEGAN       SUNNY     70  54  56 E6        29.93F
DUPAGE AIRPORT MOSUNNY   78  55  44 N3        29.92F
WHEELING       SUNNY     74  53  48 E9        29.94F
NORTHERLY ISL    N/A     67  58  72 N3          N/A
$$

LMZ740>746-032300-
SOUTHERN LAKE MICHIGAN

STATION/POSITION SKY/WX   TEMP    WIND        PRES    VSBY  WAVE
                          AIR SEA DIR/SP/G                  HT/PER
                          (F)     (DEG/KT/KT) (MB)    (MI)  (FT/S)
HARRISON CRIB              62      40/  7/  8   N/A
BURNHAM HARBOR             66      40/  5/  7   N/A
CALUMET HARBOR             67      20/  6/  8   N/A
BURNS HARBOR               65      40/  8/  9 1014.6F
MICHIGAN CITY              63      10/  4/  4   N/A
MICHIGAN CITY 6N           64 65   20/  6/  8   N/A           1/ 3
ST. JOSEPH                 64 64                N/A           1
$$

ILZ025>027-034>036-040-047-049-050-058-095>099-032300-
WEST-CENTRAL ILLINOIS

CITY           SKY/WX    TMP DP  RH WIND       PRES   REMARKS
QUINCY         SUNNY     80  58  46 N5        29.92F HX  80
MACOMB*        SUNNY     78  60  54 NW5       29.95S
$$

ILZ028>032-037-038-041>044-048-051>054-059>061-032300-
CENTRAL ILLINOIS

CITY           SKY/WX    TMP DP  RH WIND       PRES   REMARKS
DECATUR        MOSUNNY   77  65  66 NE9       29.91S
PEORIA         MOSUNNY   81  60  48 VRB6      29.92F HX  82
SPRINGFIELD    MOSUNNY   82  66  58 NE7       29.91F HX  84
TAYLORVILLE    NOT AVBL
$$

ILZ033-039-045-046-055>057-062-063-032300-
EAST-CENTRAL ILLINOIS

CITY           SKY/WX    TMP DP  RH WIND       PRES   REMARKS
CHAMPAIGN      CLOUDY    76  64  66 NE7       29.91F
MATTOON        MOSUNNY   76  64  66 N12       29.88S
$$

ILZ079-100>102-032300-
SOUTHWEST ILLINOIS

CITY           SKY/WX    TMP DP  RH WIND       PRES   REMARKS
ALTON          CLOUDY    79  73  83 N8        29.90S HX  82
BELLEVILLE     MOSUNNY   82  70  68 VRB5      29.86F HX  85
CAHOKIA*       PTSUNNY   83  64  52 N7        29.87F HX  84
SPARTA*        SUNNY     82  65  57 NW7       29.88S HX  83
$$

ILZ064>066-069>071-074>076-080>082-084>086-088>090-092>094-032300-
SOUTH-CENTRAL ILLINOIS

CITY           SKY/WX    TMP DP  RH WIND       PRES   REMARKS
CARBONDALE     SUNNY     82  63  52 NW7       29.85F HX  83
MARION         PTSUNNY   81  68  65 N7        29.86F HX  83
MT. VERNON     PTSUNNY   81  66  61 NW3       29.86S HX  83
SALEM*         MOSUNNY   81  68  63 N9        29.87F HX  84
$$

ILZ067-068-072-073-078-083-087-091-032300-
SOUTHEAST ILLINOIS

CITY           SKY/WX    TMP DP  RH WIND       PRES   REMARKS
LAWRENCEVILLE  PTSUNNY   78  68  71 NE8       29.85F HX  80
HARRISBURG*    SUNNY     82  68  62 NW9       29.86R HX  85
$$

ABBREVIATIONS USED IN REMARKS
   TC - TEMPERATURE IN CELSIUS
  WCI - WIND CHILL INDEX
   HX - HEAT INDEX
  VSB - VISIBILITY
$$



USA.gov is the U.S. government's official web portal to all federal, state and local government web resources and services.